{"data":{"norad_id":55752,"epoch":"2026-05-25T03:08:02.608800Z","epoch_age_seconds":63027,"freshness":"FRESH","line1":"1 55752U 23028M   26145.13058575  .00000292  00000+0  32284-4 0  9996","line2":"2 55752  70.0004  51.5888 0002576 268.6182  91.4682 14.98332022177497","mean_motion":14.98332022,"eccentricity":0.0002576,"inclination_deg":70.0004,"raan_deg":51.5888,"arg_perigee_deg":268.6182,"mean_anomaly_deg":91.4682,"bstar":3.2284e-5,"rev_number":17749,"period_min":96.106869429238,"perigee_km":570.25927000527,"apogee_km":573.84000616121,"semimajor_km":6950.1866380832,"source":"CELESTRAK","updated_at":"2026-05-25T13:38:17.879931Z"}}